Вернуться в каталог

USA 420

АктивенВоенныеVLEO
NORAD 61041·PAYLOAD·🇺🇸 United States

Запущен Sep 6, 2024 с Vandenberg Space Force Base

Loading…

Ближайшие Пролёты (ближайшие 24 часа)

TLE

УстаревшееSource: Mike McCants

Эпоха: Sep 6, 2026, 20:33 UTC

1 61041U 24160W   26249.85633543 0.00000000  00000-0  00000-0 0    08
2 61041  70.0218 152.0133 0004000 252.6722 107.3277 14.96713408    07

Отслеживайте USA 420 в реальном времени с AllMySat

Download on the App Store